Time,TemperatureF,DewpointF,PressureIn,WindDirection,WindDirectionDegrees,WindSpeedMPH,WindSpeedGustMPH,Humidity,HourlyPrecipIn,Conditions,Clouds,dailyrainin,SoftwareType,DateUTC
2013-01-17 00:03:00,15.4,11.7,31.00,West,276,0.0,0.0,85,0.00,,,0.00,Weather View 32 v70,2013-01-17 07:03:00,
2013-01-17 00:08:00,15.4,11.7,31.00,West,271,0.0,0.0,85,0.00,,,0.00,Weather View 32 v70,2013-01-17 07:08:00,
2013-01-17 00:13:00,15.4,11.5,31.00,West,267,0.0,0.0,84,0.00,,,0.00,Weather View 32 v70,2013-01-17 07:13:00,
2013-01-17 00:18:00,15.1,11.1,31.00,West,265,0.0,0.0,84,0.00,,,0.00,Weather View 32 v70,2013-01-17 07:18:00,
2013-01-17 00:23:00,15.1,11.1,31.00,West,265,0.0,0.0,84,0.00,,,0.00,Weather View 32 v70,2013-01-17 07:23:00,
2013-01-17 00:28:00,15.1,11.1,31.00,West,265,0.0,0.0,84,0.00,,,0.00,Weather View 32 v70,2013-01-17 07:28:00,
2013-01-17 00:33:00,15.1,10.9,31.00,West,264,0.0,0.0,83,0.00,,,0.00,Weather View 32 v70,2013-01-17 07:33:00,
2013-01-17 00:38:00,15.1,10.9,31.00,West,264,0.0,0.0,83,0.00,,,0.00,Weather View 32 v70,2013-01-17 07:38:00,
2013-01-17 00:43:00,14.7,10.2,31.00,West,262,0.0,0.0,82,0.00,,,0.00,Weather View 32 v70,2013-01-17 07:43:00,
2013-01-17 00:48:00,14.5,10.3,31.00,West,262,0.0,0.0,83,0.00,,,0.00,Weather View 32 v70,2013-01-17 07:48:00,
2013-01-17 00:53:00,14.4,10.1,31.00,West,262,0.0,0.0,83,0.00,,,0.00,Weather View 32 v70,2013-01-17 07:53:00,
2013-01-17 00:58:00,14.4,10.4,31.00,West,262,0.0,0.0,84,0.00,,,0.00,Weather View 32 v70,2013-01-17 07:58:00,
2013-01-17 01:03:00,14.2,10.2,31.00,West,262,0.0,0.0,84,0.00,,,0.00,Weather View 32 v70,2013-01-17 08:03:00,
2013-01-17 01:08:00,14.2,10.2,31.00,West,262,0.0,0.0,84,0.00,,,0.00,Weather View 32 v70,2013-01-17 08:08:00,
2013-01-17 01:13:00,14.2,10.5,31.00,West,262,0.0,0.0,85,0.00,,,0.00,Weather View 32 v70,2013-01-17 08:13:00,
2013-01-17 01:18:00,14.2,10.8,31.00,West,262,0.0,0.0,86,0.00,,,0.00,Weather View 32 v70,2013-01-17 08:18:00,
2013-01-17 01:23:00,14.2,10.8,31.00,West,262,0.0,0.0,86,0.00,,,0.00,Weather View 32 v70,2013-01-17 08:23:00,
2013-01-17 01:28:00,14.2,10.8,31.00,West,261,0.0,0.0,86,0.00,,,0.00,Weather View 32 v70,2013-01-17 08:28:00,
2013-01-17 01:33:00,14.2,10.8,31.00,West,261,0.0,0.0,86,0.00,,,0.00,Weather View 32 v70,2013-01-17 08:33:00,
2013-01-17 01:38:00,14.2,10.5,31.00,West,261,0.0,0.0,85,0.00,,,0.00,Weather View 32 v70,2013-01-17 08:38:00,
2013-01-17 01:43:00,14.2,10.5,31.00,West,261,0.0,0.0,85,0.00,,,0.00,Weather View 32 v70,2013-01-17 08:43:00,
2013-01-17 01:48:00,14.2,10.5,31.00,West,261,0.0,0.0,85,0.00,,,0.00,Weather View 32 v70,2013-01-17 08:48:00,
2013-01-17 01:53:00,13.8,10.2,31.00,West,261,0.0,0.0,85,0.00,,,0.00,Weather View 32 v70,2013-01-17 08:53:00,
2013-01-17 01:58:00,14.0,10.6,31.00,West,259,0.0,0.0,86,0.00,,,0.00,Weather View 32 v70,2013-01-17 08:58:00,
2013-01-17 02:03:00,13.8,10.4,31.00,North,0,0.0,0.0,86,0.00,,,0.00,Weather View 32 v70,2013-01-17 09:03:00,
2013-01-17 02:08:00,13.8,10.2,31.00,WSW,257,0.0,0.0,85,0.00,,,0.00,Weather View 32 v70,2013-01-17 09:08:00,
2013-01-17 02:13:00,13.8,10.2,31.00,WSW,257,0.0,0.0,85,0.00,,,0.00,Weather View 32 v70,2013-01-17 09:13:00,
2013-01-17 02:18:00,13.6,10.0,31.00,WSW,257,0.0,0.0,85,0.00,,,0.00,Weather View 32 v70,2013-01-17 09:18:00,
2013-01-17 02:23:00,13.5,9.8,31.00,WSW,257,0.0,0.0,85,0.00,,,0.00,Weather View 32 v70,2013-01-17 09:23:00,
2013-01-17 02:28:00,13.5,9.8,31.00,North,0,0.0,0.0,85,0.00,,,0.00,Weather View 32 v70,2013-01-17 09:28:00,
2013-01-17 02:33:00,13.3,9.6,31.00,WSW,257,0.0,0.0,85,0.00,,,0.00,Weather View 32 v70,2013-01-17 09:33:00,
2013-01-17 02:38:00,13.3,9.6,31.00,WSW,257,0.0,0.0,85,0.00,,,0.00,Weather View 32 v70,2013-01-17 09:38:00,
2013-01-17 02:43:00,13.3,9.6,31.00,North,0,0.0,0.0,85,0.00,,,0.00,Weather View 32 v70,2013-01-17 09:43:00,
2013-01-17 02:48:00,13.3,9.6,31.00,North,0,0.0,0.0,85,0.00,,,0.00,Weather View 32 v70,2013-01-17 09:48:00,
2013-01-17 02:53:00,13.1,9.4,31.00,WSW,257,0.0,0.0,85,0.00,,,0.00,Weather View 32 v70,2013-01-17 09:53:00,
2013-01-17 02:58:00,12.9,9.3,31.00,WSW,257,0.0,0.0,85,0.00,,,0.00,Weather View 32 v70,2013-01-17 09:58:00,
2013-01-17 03:03:00,12.9,9.3,31.00,WSW,257,0.0,0.0,85,0.00,,,0.00,Weather View 32 v70,2013-01-17 10:03:00,
2013-01-17 03:08:00,12.7,9.1,31.00,North,0,0.0,0.0,85,0.00,,,0.00,Weather View 32 v70,2013-01-17 10:08:00,
2013-01-17 03:13:00,12.7,9.1,31.00,North,0,0.0,0.0,85,0.00,,,0.00,Weather View 32 v70,2013-01-17 10:13:00,
2013-01-17 03:17:00,12.6,8.9,31.00,WSW,257,0.0,0.0,85,0.00,,,0.00,Weather View 32 v70,2013-01-17 10:17:00,
2013-01-17 03:22:00,12.4,8.7,31.00,North,0,0.0,0.0,85,0.00,,,0.00,Weather View 32 v70,2013-01-17 10:22:00,
2013-01-17 03:27:00,12.4,8.7,31.00,North,0,0.0,0.0,85,0.00,,,0.00,Weather View 32 v70,2013-01-17 10:27:00,
2013-01-17 03:32:00,12.2,8.6,31.00,WSW,257,0.0,0.0,85,0.00,,,0.00,Weather View 32 v70,2013-01-17 10:32:00,
2013-01-17 03:37:00,12.0,8.4,31.00,North,0,0.0,0.0,85,0.00,,,0.00,Weather View 32 v70,2013-01-17 10:37:00,
2013-01-17 03:42:00,12.0,8.4,31.00,WSW,257,0.0,0.0,85,0.00,,,0.00,Weather View 32 v70,2013-01-17 10:42:00,
2013-01-17 03:47:00,12.0,8.4,31.00,WSW,257,0.0,0.0,85,0.00,,,0.00,Weather View 32 v70,2013-01-17 10:47:00,
2013-01-17 03:52:00,11.8,8.2,31.00,North,0,0.0,0.0,85,0.00,,,0.00,Weather View 32 v70,2013-01-17 10:52:00,
2013-01-17 03:57:00,11.8,8.2,31.00,North,0,0.0,0.0,85,0.00,,,0.00,Weather View 32 v70,2013-01-17 10:57:00,
2013-01-17 04:02:00,11.8,8.2,31.00,North,0,0.0,0.0,85,0.00,,,0.00,Weather View 32 v70,2013-01-17 11:02:00,
2013-01-17 04:07:00,11.7,8.0,31.00,North,0,0.0,0.0,85,0.00,,,0.00,Weather View 32 v70,2013-01-17 11:07:00,
2013-01-17 04:12:00,11.7,8.0,31.00,North,0,0.0,0.0,85,0.00,,,0.00,Weather View 32 v70,2013-01-17 11:12:00,
2013-01-17 04:17:00,11.5,7.9,31.00,North,0,0.0,0.0,85,0.00,,,0.00,Weather View 32 v70,2013-01-17 11:17:00,
2013-01-17 04:22:00,11.3,7.7,31.00,North,0,0.0,0.0,85,0.00,,,0.00,Weather View 32 v70,2013-01-17 11:22:00,
2013-01-17 04:28:00,11.3,7.7,31.00,North,0,0.0,0.0,85,0.00,,,0.00,Weather View 32 v70,2013-01-17 11:28:00,
2013-01-17 04:32:00,11.3,7.7,31.00,North,0,0.0,0.0,85,0.00,,,0.00,Weather View 32 v70,2013-01-17 11:32:00,
2013-01-17 04:37:00,11.3,7.7,31.00,North,0,0.0,0.0,85,0.00,,,0.00,Weather View 32 v70,2013-01-17 11:37:00,
2013-01-17 04:42:00,11.3,7.7,31.00,North,0,0.0,0.0,85,0.00,,,0.00,Weather View 32 v70,2013-01-17 11:42:00,
2013-01-17 04:48:00,11.3,7.7,31.00,North,0,0.0,0.0,85,0.00,,,0.00,Weather View 32 v70,2013-01-17 11:48:00,
2013-01-17 04:53:00,11.3,7.7,31.00,North,0,0.0,0.0,85,0.00,,,0.00,Weather View 32 v70,2013-01-17 11:53:00,
2013-01-17 04:58:00,11.3,7.7,31.00,North,0,0.0,0.0,85,0.00,,,0.00,Weather View 32 v70,2013-01-17 11:58:00,
2013-01-17 05:03:00,11.1,7.5,31.00,North,0,0.0,0.0,85,0.00,,,0.00,Weather View 32 v70,2013-01-17 12:03:00,
2013-01-17 05:08:00,11.1,7.5,31.00,WSW,257,0.0,0.0,85,0.00,,,0.00,Weather View 32 v70,2013-01-17 12:08:00,
2013-01-17 05:13:00,11.1,7.5,31.00,North,0,0.0,0.0,85,0.00,,,0.00,Weather View 32 v70,2013-01-17 12:13:00,
2013-01-17 05:17:00,11.1,7.5,31.00,North,0,0.0,0.0,85,0.00,,,0.00,Weather View 32 v70,2013-01-17 12:17:00,
2013-01-17 05:22:00,11.1,7.5,31.00,North,0,0.0,0.0,85,0.00,,,0.00,Weather View 32 v70,2013-01-17 12:22:00,
2013-01-17 05:27:00,11.1,7.5,31.00,North,0,0.0,0.0,85,0.00,,,0.00,Weather View 32 v70,2013-01-17 12:27:00,
2013-01-17 05:32:00,11.1,7.5,31.00,North,0,0.0,0.0,85,0.00,,,0.00,Weather View 32 v70,2013-01-17 12:32:00,
2013-01-17 05:37:00,10.9,7.3,31.00,North,0,0.0,0.0,85,0.00,,,0.00,Weather View 32 v70,2013-01-17 12:37:00,
2013-01-17 05:42:00,11.1,7.5,31.00,North,0,0.0,0.0,85,0.00,,,0.00,Weather View 32 v70,2013-01-17 12:42:00,
2013-01-17 05:47:00,11.1,7.5,31.00,WSW,257,0.0,0.0,85,0.00,,,0.00,Weather View 32 v70,2013-01-17 12:47:00,
2013-01-17 05:52:00,11.1,7.5,31.00,WSW,257,0.0,0.0,85,0.00,,,0.00,Weather View 32 v70,2013-01-17 12:52:00,
2013-01-17 05:57:00,11.1,7.5,31.00,North,0,0.0,0.0,85,0.00,,,0.00,Weather View 32 v70,2013-01-17 12:57:00,
2013-01-17 06:02:00,11.1,7.5,31.00,North,0,0.0,0.0,85,0.00,,,0.00,Weather View 32 v70,2013-01-17 13:02:00,
2013-01-17 06:07:00,11.1,7.5,31.00,North,0,0.0,0.0,85,0.00,,,0.00,Weather View 32 v70,2013-01-17 13:07:00,
2013-01-17 06:12:00,11.1,7.5,31.00,North,0,0.0,0.0,85,0.00,,,0.00,Weather View 32 v70,2013-01-17 13:12:00,
2013-01-17 06:17:00,11.1,7.5,31.00,North,0,0.0,0.0,85,0.00,,,0.00,Weather View 32 v70,2013-01-17 13:17:00,
2013-01-17 06:22:00,11.1,7.5,31.00,North,0,0.0,0.0,85,0.00,,,0.00,Weather View 32 v70,2013-01-17 13:22:00,
2013-01-17 06:27:00,11.3,7.7,31.00,WSW,257,0.0,0.0,85,0.00,,,0.00,Weather View 32 v70,2013-01-17 13:27:00,
2013-01-17 06:32:00,11.1,7.5,31.00,North,0,0.0,0.0,85,0.00,,,0.00,Weather View 32 v70,2013-01-17 13:32:00,
2013-01-17 06:37:00,11.1,7.5,31.00,North,0,0.0,0.0,85,0.00,,,0.00,Weather View 32 v70,2013-01-17 13:37:00,
2013-01-17 06:42:00,11.1,7.5,31.00,North,0,0.0,0.0,85,0.00,,,0.00,Weather View 32 v70,2013-01-17 13:42:00,
2013-01-17 06:47:00,11.1,7.5,31.00,North,0,0.0,0.0,85,0.00,,,0.00,Weather View 32 v70,2013-01-17 13:47:00,
2013-01-17 06:52:00,11.1,7.5,31.00,North,0,0.0,0.0,85,0.00,,,0.00,Weather View 32 v70,2013-01-17 13:52:00,
2013-01-17 06:57:00,11.1,7.5,31.00,North,0,0.0,0.0,85,0.00,,,0.00,Weather View 32 v70,2013-01-17 13:57:00,
2013-01-17 07:02:00,11.1,7.5,31.00,North,0,0.0,0.0,85,0.00,,,0.00,Weather View 32 v70,2013-01-17 14:02:00,
2013-01-17 07:07:00,10.9,7.3,31.00,North,0,0.0,0.0,85,0.00,,,0.00,Weather View 32 v70,2013-01-17 14:07:00,
2013-01-17 07:12:00,10.9,7.3,31.00,North,0,0.0,0.0,85,0.00,,,0.00,Weather View 32 v70,2013-01-17 14:12:00,
2013-01-17 07:17:00,10.9,7.3,31.00,North,0,0.0,0.0,85,0.00,,,0.00,Weather View 32 v70,2013-01-17 14:17:00,
2013-01-17 07:22:00,11.1,7.5,31.00,North,0,0.0,0.0,85,0.00,,,0.00,Weather View 32 v70,2013-01-17 14:22:00,
2013-01-17 07:27:00,11.1,7.5,31.00,North,0,0.0,0.0,85,0.00,,,0.00,Weather View 32 v70,2013-01-17 14:27:00,
2013-01-17 07:32:00,11.1,7.5,31.00,North,0,0.0,0.0,85,0.00,,,0.00,Weather View 32 v70,2013-01-17 14:32:00,
2013-01-17 07:37:00,11.1,7.5,31.00,North,0,0.0,0.0,85,0.00,,,0.00,Weather View 32 v70,2013-01-17 14:37:00,
2013-01-17 07:42:00,11.3,7.7,31.00,North,0,0.0,0.0,85,0.00,,,0.00,Weather View 32 v70,2013-01-17 14:42:00,
2013-01-17 07:47:00,11.3,7.7,31.00,North,0,0.0,0.0,85,0.00,,,0.00,Weather View 32 v70,2013-01-17 14:47:00,
2013-01-17 07:52:00,11.3,7.7,31.00,North,0,0.0,0.0,85,0.00,,,0.00,Weather View 32 v70,2013-01-17 14:52:00,
2013-01-17 07:57:00,11.7,8.0,31.00,North,0,0.0,0.0,85,0.00,,,0.00,Weather View 32 v70,2013-01-17 14:57:00,
2013-01-17 08:02:00,11.7,8.0,31.00,North,0,0.0,0.0,85,0.00,,,0.00,Weather View 32 v70,2013-01-17 15:02:00,
2013-01-17 08:07:00,11.7,8.0,31.00,North,0,0.0,0.0,85,0.00,,,0.00,Weather View 32 v70,2013-01-17 15:07:00,
2013-01-17 08:12:00,11.8,8.2,31.00,North,0,0.0,0.0,85,0.00,,,0.00,Weather View 32 v70,2013-01-17 15:12:00,
2013-01-17 08:17:00,11.8,8.2,31.00,North,0,0.0,0.0,85,0.00,,,0.00,Weather View 32 v70,2013-01-17 15:17:00,
2013-01-17 08:22:00,12.0,8.4,31.00,North,0,0.0,0.0,85,0.00,,,0.00,Weather View 32 v70,2013-01-17 15:22:00,
2013-01-17 08:27:00,12.2,8.6,31.00,WSW,257,0.0,0.0,85,0.00,,,0.00,Weather View 32 v70,2013-01-17 15:27:00,
2013-01-17 08:35:00,12.6,8.9,31.00,North,0,0.0,0.0,85,0.00,,,0.00,Weather View 32 v70,2013-01-17 15:35:00,
2013-01-17 08:40:00,12.6,8.9,31.00,WSW,257,0.0,0.0,85,0.00,,,0.00,Weather View 32 v70,2013-01-17 15:40:00,
2013-01-17 08:45:00,12.7,9.1,31.00,WSW,257,0.0,0.0,85,0.00,,,0.00,Weather View 32 v70,2013-01-17 15:45:00,
2013-01-17 08:50:00,12.7,9.1,31.00,North,0,0.0,0.0,85,0.00,,,0.00,Weather View 32 v70,2013-01-17 15:50:00,
2013-01-17 08:55:00,12.9,9.3,31.00,North,0,0.0,0.0,85,0.00,,,0.00,Weather View 32 v70,2013-01-17 15:55:00,
2013-01-17 09:00:00,13.1,9.4,31.00,WSW,248,0.0,0.0,85,0.00,,,0.00,Weather View 32 v70,2013-01-17 16:00:00,
2013-01-17 09:05:00,13.3,9.6,31.00,WSW,242,0.0,0.0,85,0.00,,,0.00,Weather View 32 v70,2013-01-17 16:05:00,
2013-01-17 09:10:00,13.5,9.8,31.00,North,0,0.0,0.0,85,0.00,,,0.00,Weather View 32 v70,2013-01-17 16:10:00,
2013-01-17 09:15:00,13.6,10.0,31.00,WSW,240,0.0,0.0,85,0.00,,,0.00,Weather View 32 v70,2013-01-17 16:15:00,
2013-01-17 09:20:00,13.8,10.2,31.00,WSW,237,0.0,0.0,85,0.00,,,0.00,Weather View 32 v70,2013-01-17 16:20:00,
2013-01-17 09:25:00,14.2,11.0,31.00,SW,236,0.0,0.0,87,0.00,,,0.00,Weather View 32 v70,2013-01-17 16:25:00,
2013-01-17 09:30:00,14.5,11.1,31.00,SW,234,0.0,0.0,86,0.00,,,0.00,Weather View 32 v70,2013-01-17 16:30:00,
2013-01-17 09:35:00,15.1,11.9,31.00,SW,234,0.0,0.0,87,0.00,,,0.00,Weather View 32 v70,2013-01-17 16:35:00,
2013-01-17 09:40:00,16.7,13.5,31.00,SW,231,0.0,0.0,87,0.00,,,0.00,Weather View 32 v70,2013-01-17 16:40:00,
2013-01-17 09:45:00,18.7,15.2,31.00,SW,231,0.0,0.0,86,0.00,,,0.00,Weather View 32 v70,2013-01-17 16:45:00,
2013-01-17 09:50:00,20.5,15.3,31.00,SW,231,0.0,0.0,80,0.00,,,0.00,Weather View 32 v70,2013-01-17 16:50:00,
2013-01-17 09:55:00,21.6,13.6,31.00,SW,231,0.0,0.0,71,0.00,,,0.00,Weather View 32 v70,2013-01-17 16:55:00,
2013-01-17 10:00:00,22.6,12.6,31.00,SW,231,0.0,0.0,65,0.00,,,0.00,Weather View 32 v70,2013-01-17 17:00:00,
2013-01-17 10:05:00,23.4,11.9,31.00,SW,231,0.0,0.0,61,0.00,,,0.00,Weather View 32 v70,2013-01-17 17:05:00,
2013-01-17 10:10:00,23.7,11.1,31.00,SW,231,0.0,0.0,58,0.00,,,0.00,Weather View 32 v70,2013-01-17 17:10:00,
2013-01-17 10:15:00,23.5,10.9,31.00,SW,231,0.0,0.0,58,0.00,,,0.00,Weather View 32 v70,2013-01-17 17:15:00,
2013-01-17 10:20:00,23.5,11.3,31.00,SW,231,0.0,0.0,59,0.00,,,0.00,Weather View 32 v70,2013-01-17 17:20:00,
2013-01-17 10:25:00,23.9,11.7,31.00,SW,231,0.0,0.0,59,0.00,,,0.00,Weather View 32 v70,2013-01-17 17:25:00,
2013-01-17 10:30:00,24.4,11.8,31.00,SW,231,0.0,0.0,58,0.00,,,0.00,Weather View 32 v70,2013-01-17 17:30:00,
2013-01-17 10:35:00,25.3,11.8,31.00,SW,231,0.0,0.0,56,0.00,,,0.00,Weather View 32 v70,2013-01-17 17:35:00,
2013-01-17 10:40:00,27.0,12.5,31.00,SW,231,0.0,0.0,54,0.00,,,0.00,Weather View 32 v70,2013-01-17 17:40:00,
2013-01-17 10:45:00,28.9,13.5,31.00,SW,231,0.0,0.0,52,0.00,,,0.00,Weather View 32 v70,2013-01-17 17:45:00,
2013-01-17 10:50:00,32.2,14.7,31.00,SW,231,0.0,0.0,48,0.00,,,0.00,Weather View 32 v70,2013-01-17 17:50:00,
2013-01-17 10:55:00,35.1,14.3,31.00,SW,231,0.0,0.0,42,0.00,,,0.00,Weather View 32 v70,2013-01-17 17:55:00,
2013-01-17 11:00:00,37.4,14.7,31.00,SW,231,0.0,0.0,39,0.00,,,0.00,Weather View 32 v70,2013-01-17 18:00:00,
2013-01-17 11:05:00,40.1,14.6,31.00,SW,231,0.0,0.0,35,0.00,,,0.00,Weather View 32 v70,2013-01-17 18:05:00,
2013-01-17 11:10:00,42.6,15.5,31.00,SW,231,0.0,0.0,33,0.00,,,0.00,Weather View 32 v70,2013-01-17 18:10:00,
2013-01-17 11:15:00,43.7,15.0,31.00,SW,231,0.0,0.0,31,0.00,,,0.00,Weather View 32 v70,2013-01-17 18:15:00,
2013-01-17 11:20:00,45.0,13.8,31.00,SSW,213,0.0,0.0,28,0.00,,,0.00,Weather View 32 v70,2013-01-17 18:20:00,
2013-01-17 11:25:00,46.8,15.3,31.00,SW,217,0.0,0.0,28,0.00,,,0.00,Weather View 32 v70,2013-01-17 18:25:00,
2013-01-17 11:30:00,48.0,16.4,31.00,SW,217,0.0,0.0,28,0.00,,,0.00,Weather View 32 v70,2013-01-17 18:30:00,
2013-01-17 11:35:00,48.4,15.9,31.00,SW,217,0.0,0.0,27,0.00,,,0.00,Weather View 32 v70,2013-01-17 18:35:00,
2013-01-17 11:40:00,48.6,16.0,31.00,WSW,241,0.0,0.0,27,0.00,,,0.00,Weather View 32 v70,2013-01-17 18:40:00,
2013-01-17 11:45:00,48.9,16.3,31.00,SE,131,0.0,0.0,27,0.00,,,0.00,Weather View 32 v70,2013-01-17 18:45:00,
2013-01-17 11:50:00,48.7,13.5,31.00,WSW,245,0.0,0.0,24,0.00,,,0.00,Weather View 32 v70,2013-01-17 18:50:00,
2013-01-17 11:55:00,48.7,16.2,31.00,SSW,192,0.0,0.0,27,0.00,,,0.00,Weather View 32 v70,2013-01-17 18:55:00,
2013-01-17 12:00:00,47.8,15.4,31.00,SSW,201,0.0,3.0,27,0.00,,,0.00,Weather View 32 v70,2013-01-17 19:00:00,
2013-01-17 12:05:00,47.7,15.3,31.00,NW,304,0.0,3.0,27,0.00,,,0.00,Weather View 32 v70,2013-01-17 19:05:00,
2013-01-17 12:10:00,47.5,12.4,31.00,SW,236,0.0,3.0,24,0.00,,,0.00,Weather View 32 v70,2013-01-17 19:10:00,
2013-01-17 12:15:00,47.5,12.4,31.00,WSW,258,0.0,3.0,24,0.00,,,0.00,Weather View 32 v70,2013-01-17 19:15:00,
2013-01-17 12:20:00,46.9,12.0,31.00,South,173,0.0,3.0,24,0.00,,,0.00,Weather View 32 v70,2013-01-17 19:20:00,
2013-01-17 12:25:00,46.9,14.6,31.00,West,264,0.0,3.0,27,0.00,,,0.00,Weather View 32 v70,2013-01-17 19:25:00,
2013-01-17 12:30:00,47.3,12.3,31.00,SW,226,0.0,5.0,24,0.00,,,0.00,Weather View 32 v70,2013-01-17 19:30:00,
2013-01-17 12:35:00,47.1,12.1,31.00,WSW,249,0.0,5.0,24,0.00,,,0.00,Weather View 32 v70,2013-01-17 19:35:00,
2013-01-17 12:40:00,47.7,15.3,31.00,West,272,0.0,5.0,27,0.00,,,0.00,Weather View 32 v70,2013-01-17 19:40:00,
2013-01-17 12:45:00,47.1,12.1,31.00,West,267,0.0,5.0,24,0.00,,,0.00,Weather View 32 v70,2013-01-17 19:45:00,
2013-01-17 12:50:00,47.5,12.4,31.00,NNE,33,0.0,5.0,24,0.00,,,0.00,Weather View 32 v70,2013-01-17 19:50:00,
2013-01-17 12:55:00,47.8,15.4,31.00,ENE,74,0.0,5.0,27,0.00,,,0.00,Weather View 32 v70,2013-01-17 19:55:00,
2013-01-17 13:00:00,48.2,15.7,31.00,East,93,4.0,5.0,27,0.00,,,0.00,Weather View 32 v70,2013-01-17 20:00:00,
2013-01-17 13:05:00,47.1,12.1,31.00,ESE,113,4.0,6.0,24,0.00,,,0.00,Weather View 32 v70,2013-01-17 20:05:00,
2013-01-17 13:10:00,46.9,12.0,31.00,NE,56,2.0,6.0,24,0.00,,,0.00,Weather View 32 v70,2013-01-17 20:10:00,
2013-01-17 13:15:00,46.9,12.0,31.00,ENE,72,5.0,6.0,24,0.00,,,0.00,Weather View 32 v70,2013-01-17 20:15:00,
2013-01-17 13:20:00,47.3,12.3,31.00,North,353,0.0,6.0,24,0.00,,,0.00,Weather View 32 v70,2013-01-17 20:20:00,
2013-01-17 13:25:00,47.7,15.3,31.00,SE,127,2.0,6.0,27,0.00,,,0.00,Weather View 32 v70,2013-01-17 20:25:00,
2013-01-17 13:30:00,48.4,15.0,31.00,WSW,240,0.0,6.0,26,0.00,,,0.00,Weather View 32 v70,2013-01-17 20:30:00,
2013-01-17 13:35:00,48.9,13.7,31.00,SSE,160,0.0,6.0,24,0.00,,,0.00,Weather View 32 v70,2013-01-17 20:35:00,
2013-01-17 13:40:00,48.6,13.3,31.00,ENE,76,0.0,6.0,24,0.00,,,0.00,Weather View 32 v70,2013-01-17 20:40:00,
2013-01-17 13:45:00,47.5,12.4,31.00,ESE,113,0.0,6.0,24,0.00,,,0.00,Weather View 32 v70,2013-01-17 20:45:00,
2013-01-17 13:50:00,47.5,12.4,31.00,ENE,63,6.0,6.0,24,0.00,,,0.00,Weather View 32 v70,2013-01-17 20:50:00,
2013-01-17 13:55:00,47.3,15.0,31.00,ESE,105,0.0,6.0,27,0.00,,,0.00,Weather View 32 v70,2013-01-17 20:55:00,
2013-01-17 14:00:00,47.5,12.4,31.00,SSE,167,0.0,6.0,24,0.00,,,0.00,Weather View 32 v70,2013-01-17 21:00:00,
2013-01-17 14:05:00,47.3,15.0,31.00,ENE,61,0.0,6.0,27,0.00,,,0.00,Weather View 32 v70,2013-01-17 21:05:00,
2013-01-17 14:10:00,46.0,12.1,31.00,NE,34,0.0,6.0,25,0.00,,,0.00,Weather View 32 v70,2013-01-17 21:10:00,
2013-01-17 14:15:00,46.4,11.5,31.00,WNW,301,0.0,6.0,24,0.00,,,0.00,Weather View 32 v70,2013-01-17 21:15:00,
2013-01-17 14:20:00,46.2,12.3,31.00,North,0,0.0,6.0,25,0.00,,,0.00,Weather View 32 v70,2013-01-17 21:20:00,
2013-01-17 14:25:00,45.9,12.0,31.00,ENE,70,0.0,6.0,25,0.00,,,0.00,Weather View 32 v70,2013-01-17 21:25:00,
2013-01-17 14:30:00,45.5,11.7,31.00,ENE,68,0.0,6.0,25,0.00,,,0.00,Weather View 32 v70,2013-01-17 21:30:00,
2013-01-17 14:35:00,46.4,11.5,31.00,North,1,0.0,6.0,24,0.00,,,0.00,Weather View 32 v70,2013-01-17 21:35:00,
2013-01-17 14:40:00,46.9,12.0,31.00,ENE,65,0.0,6.0,24,0.00,,,0.00,Weather View 32 v70,2013-01-17 21:40:00,
2013-01-17 14:45:00,47.1,14.8,31.00,NE,49,0.0,6.0,27,0.00,,,0.00,Weather View 32 v70,2013-01-17 21:45:00,
2013-01-17 14:50:00,47.5,12.4,31.00,NE,50,0.0,6.0,24,0.00,,,0.00,Weather View 32 v70,2013-01-17 21:50:00,
2013-01-17 14:55:00,47.7,15.3,31.00,NNE,14,0.0,6.0,27,0.00,,,0.00,Weather View 32 v70,2013-01-17 21:55:00,
2013-01-17 15:00:00,47.7,15.3,31.00,NW,305,0.0,6.0,27,0.00,,,0.00,Weather View 32 v70,2013-01-17 22:00:00,
2013-01-17 15:05:00,44.4,13.3,31.00,NW,305,0.0,6.0,28,0.00,,,0.00,Weather View 32 v70,2013-01-17 22:05:00,
2013-01-17 15:10:00,41.0,11.9,31.00,NW,305,0.0,4.0,30,0.00,,,0.00,Weather View 32 v70,2013-01-17 22:10:00,
2013-01-17 15:15:00,38.1,13.5,31.00,NW,321,0.0,0.0,36,0.00,,,0.00,Weather View 32 v70,2013-01-17 22:15:00,
2013-01-17 15:20:00,36.7,12.8,31.00,NNW,332,0.0,0.0,37,0.00,,,0.00,Weather View 32 v70,2013-01-17 22:20:00,
2013-01-17 15:25:00,36.0,13.4,31.00,NNW,332,0.0,0.0,39,0.00,,,0.00,Weather View 32 v70,2013-01-17 22:25:00,
2013-01-17 15:30:00,34.9,13.0,31.00,NNW,331,0.0,0.0,40,0.00,,,0.00,Weather View 32 v70,2013-01-17 22:30:00,
2013-01-17 15:35:00,33.8,13.1,31.00,NNW,331,0.0,0.0,42,0.00,,,0.00,Weather View 32 v70,2013-01-17 22:35:00,
2013-01-17 15:40:00,32.7,12.7,31.00,NNW,331,0.0,0.0,43,0.00,,,0.00,Weather View 32 v70,2013-01-17 22:40:00,
2013-01-17 15:45:00,32.4,12.3,31.00,NNW,331,0.0,0.0,43,0.00,,,0.00,Weather View 32 v70,2013-01-17 22:45:00,
2013-01-17 15:50:00,32.0,13.5,31.00,NNW,331,0.0,0.0,46,0.00,,,0.00,Weather View 32 v70,2013-01-17 22:50:00,
2013-01-17 15:55:00,31.1,12.7,31.00,West,272,0.0,0.0,46,0.00,,,0.00,Weather View 32 v70,2013-01-17 22:55:00,
2013-01-17 16:00:00,30.6,12.2,31.00,NW,308,0.0,0.0,46,0.00,,,0.00,Weather View 32 v70,2013-01-17 23:00:00,
2013-01-17 16:05:00,29.8,12.5,31.00,West,267,0.0,0.0,48,0.00,,,0.00,Weather View 32 v70,2013-01-17 23:05:00,
2013-01-17 16:10:00,28.9,12.2,31.00,SW,233,0.0,0.0,49,0.00,,,0.00,Weather View 32 v70,2013-01-17 23:10:00,
2013-01-17 16:15:00,28.4,11.7,31.00,SW,236,0.0,0.0,49,0.00,,,0.00,Weather View 32 v70,2013-01-17 23:15:00,
2013-01-17 16:20:00,27.7,11.5,31.00,SW,230,0.0,0.0,50,0.00,,,0.00,Weather View 32 v70,2013-01-17 23:20:00,
2013-01-17 16:25:00,27.1,11.4,31.00,WSW,237,0.0,0.0,51,0.00,,,0.00,Weather View 32 v70,2013-01-17 23:25:00,
2013-01-17 16:30:00,26.6,10.9,31.00,WSW,239,0.0,0.0,51,0.00,,,0.00,Weather View 32 v70,2013-01-17 23:30:00,
2013-01-17 16:35:00,26.2,10.1,31.00,North,0,0.0,0.0,50,0.00,,,0.00,Weather View 32 v70,2013-01-17 23:35:00,
2013-01-17 16:40:00,25.9,10.2,31.00,North,0,0.0,0.0,51,0.00,,,0.00,Weather View 32 v70,2013-01-17 23:40:00,
2013-01-17 16:45:00,25.3,10.2,31.00,North,0,0.0,0.0,52,0.00,,,0.00,Weather View 32 v70,2013-01-17 23:45:00,
2013-01-17 16:50:00,25.0,9.0,31.00,North,0,0.0,0.0,50,0.00,,,0.00,Weather View 32 v70,2013-01-17 23:50:00,
2013-01-17 16:55:00,24.6,9.5,31.00,North,0,0.0,0.0,52,0.00,,,0.00,Weather View 32 v70,2013-01-17 23:55:00,
2013-01-17 17:00:00,24.4,9.3,31.00,West,260,0.0,0.0,52,0.00,,,0.00,Weather View 32 v70,2013-01-18 00:00:00,
2013-01-17 17:05:00,24.4,8.9,31.00,North,0,0.0,0.0,51,0.00,,,0.00,Weather View 32 v70,2013-01-18 00:05:00,
2013-01-17 17:10:00,24.3,8.7,31.00,North,0,0.0,0.0,51,0.00,,,0.00,Weather View 32 v70,2013-01-18 00:10:00,
2013-01-17 17:15:00,24.3,9.2,31.00,North,0,0.0,0.0,52,0.00,,,0.00,Weather View 32 v70,2013-01-18 00:15:00,
2013-01-17 17:20:00,24.1,7.7,31.00,West,260,0.0,0.0,49,0.00,,,0.00,Weather View 32 v70,2013-01-18 00:20:00,
2013-01-17 17:25:00,24.3,8.3,31.00,North,0,0.0,0.0,50,0.00,,,0.00,Weather View 32 v70,2013-01-18 00:25:00,
2013-01-17 17:30:00,24.4,7.1,31.00,North,0,0.0,0.0,47,0.00,,,0.00,Weather View 32 v70,2013-01-18 00:30:00,
2013-01-17 17:35:00,24.4,7.6,31.00,North,0,0.0,0.0,48,0.00,,,0.00,Weather View 32 v70,2013-01-18 00:35:00,
2013-01-17 17:40:00,24.3,6.4,31.00,North,0,0.0,0.0,46,0.00,,,0.00,Weather View 32 v70,2013-01-18 00:40:00,
2013-01-17 17:45:00,24.1,7.2,31.00,North,0,0.0,0.0,48,0.00,,,0.00,Weather View 32 v70,2013-01-18 00:45:00,
2013-01-17 17:50:00,23.7,6.4,31.00,North,0,0.0,0.0,47,0.00,,,0.00,Weather View 32 v70,2013-01-18 00:50:00,
2013-01-17 17:55:00,23.5,6.7,31.00,WSW,256,0.0,0.0,48,0.00,,,0.00,Weather View 32 v70,2013-01-18 00:55:00,
2013-01-17 18:00:00,23.2,6.4,31.00,WSW,254,0.0,0.0,48,0.00,,,0.00,Weather View 32 v70,2013-01-18 01:00:00,
2013-01-17 18:05:00,22.8,7.4,31.00,North,0,0.0,0.0,51,0.00,,,0.00,Weather View 32 v70,2013-01-18 01:05:00,
2013-01-17 18:10:00,22.5,6.6,31.00,North,0,0.0,0.0,50,0.00,,,0.00,Weather View 32 v70,2013-01-18 01:10:00,
2013-01-17 18:15:00,22.3,6.9,31.00,North,0,0.0,0.0,51,0.00,,,0.00,Weather View 32 v70,2013-01-18 01:15:00,
2013-01-17 18:20:00,22.1,7.2,31.00,North,0,0.0,0.0,52,0.00,,,0.00,Weather View 32 v70,2013-01-18 01:20:00,
2013-01-17 18:25:00,21.7,6.8,31.00,North,0,0.0,0.0,52,0.00,,,0.00,Weather View 32 v70,2013-01-18 01:25:00,
2013-01-17 18:30:00,21.6,7.1,31.00,North,0,0.0,0.0,53,0.00,,,0.00,Weather View 32 v70,2013-01-18 01:30:00,
2013-01-17 18:35:00,21.6,5.8,31.00,North,0,0.0,0.0,50,0.00,,,0.00,Weather View 32 v70,2013-01-18 01:35:00,
2013-01-17 18:40:00,21.4,6.9,31.00,North,0,0.0,0.0,53,0.00,,,0.00,Weather View 32 v70,2013-01-18 01:40:00,
2013-01-17 18:45:00,21.2,6.3,31.00,North,0,0.0,0.0,52,0.00,,,0.00,Weather View 32 v70,2013-01-18 01:45:00,
2013-01-17 18:50:00,21.2,7.1,31.00,North,0,0.0,0.0,54,0.00,,,0.00,Weather View 32 v70,2013-01-18 01:50:00,
2013-01-17 18:55:00,21.2,5.0,31.00,North,0,0.0,0.0,49,0.00,,,0.00,Weather View 32 v70,2013-01-18 01:55:00,
2013-01-17 19:00:00,21.0,6.1,31.00,North,0,0.0,0.0,52,0.00,,,0.00,Weather View 32 v70,2013-01-18 02:00:00,
2013-01-17 19:05:00,21.0,6.6,31.00,North,0,0.0,0.0,53,0.00,,,0.00,Weather View 32 v70,2013-01-18 02:05:00,
2013-01-17 19:10:00,20.7,6.2,31.00,WSW,253,0.0,0.0,53,0.00,,,0.00,Weather View 32 v70,2013-01-18 02:10:00,
2013-01-17 19:15:00,20.3,6.3,31.00,North,0,0.0,0.0,54,0.00,,,0.00,Weather View 32 v70,2013-01-18 02:15:00,
2013-01-17 19:20:00,19.9,6.4,31.00,North,0,0.0,0.0,55,0.00,,,0.00,Weather View 32 v70,2013-01-18 02:20:00,
2013-01-17 19:25:00,20.3,6.3,31.00,North,0,0.0,0.0,54,0.00,,,0.00,Weather View 32 v70,2013-01-18 02:25:00,
2013-01-17 19:30:00,19.8,6.2,31.00,WSW,253,0.0,0.0,55,0.00,,,0.00,Weather View 32 v70,2013-01-18 02:30:00,
2013-01-17 19:35:00,19.4,5.9,31.00,North,0,0.0,0.0,55,0.00,,,0.00,Weather View 32 v70,2013-01-18 02:35:00,
2013-01-17 19:40:00,19.2,5.7,31.00,WSW,253,0.0,0.0,55,0.00,,,0.00,Weather View 32 v70,2013-01-18 02:40:00,
2013-01-17 19:45:00,19.0,5.5,31.00,North,0,0.0,0.0,55,0.00,,,0.00,Weather View 32 v70,2013-01-18 02:45:00,
2013-01-17 19:50:00,18.9,4.6,31.00,WSW,253,0.0,0.0,53,0.00,,,0.00,Weather View 32 v70,2013-01-18 02:50:00,
2013-01-17 19:55:00,18.9,5.0,31.00,WSW,253,0.0,0.0,54,0.00,,,0.00,Weather View 32 v70,2013-01-18 02:55:00,
2013-01-17 20:00:00,18.7,4.8,31.00,North,0,0.0,0.0,54,0.00,,,0.00,Weather View 32 v70,2013-01-18 03:00:00,
2013-01-17 20:05:00,18.9,5.0,31.00,North,0,0.0,0.0,54,0.00,,,0.00,Weather View 32 v70,2013-01-18 03:05:00,
2013-01-17 20:10:00,19.0,4.7,31.00,North,0,0.0,0.0,53,0.00,,,0.00,Weather View 32 v70,2013-01-18 03:10:00,
2013-01-17 20:14:00,19.2,4.9,31.00,NW,312,0.0,0.0,53,0.00,,,0.00,Weather View 32 v70,2013-01-18 03:14:00,
2013-01-17 20:19:00,19.2,4.9,31.00,West,279,0.0,0.0,53,0.00,,,0.00,Weather View 32 v70,2013-01-18 03:19:00,
2013-01-17 20:24:00,19.2,4.9,31.00,North,0,0.0,0.0,53,0.00,,,0.00,Weather View 32 v70,2013-01-18 03:24:00,
2013-01-17 20:29:00,19.2,4.1,31.00,WSW,239,0.0,0.0,51,0.00,,,0.00,Weather View 32 v70,2013-01-18 03:29:00,
2013-01-17 20:34:00,19.2,4.1,31.00,SW,226,0.0,0.0,51,0.00,,,0.00,Weather View 32 v70,2013-01-18 03:34:00,
2013-01-17 20:39:00,19.6,5.6,31.00,NW,318,0.0,0.0,54,0.00,,,0.00,Weather View 32 v70,2013-01-18 03:39:00,
2013-01-17 20:44:00,19.6,4.4,31.00,WNW,290,0.0,0.0,51,0.00,,,0.00,Weather View 32 v70,2013-01-18 03:44:00,
2013-01-17 20:49:00,19.4,4.2,31.00,SSW,211,0.0,0.0,51,0.00,,,0.00,Weather View 32 v70,2013-01-18 03:49:00,
2013-01-17 20:54:00,19.9,3.8,31.00,NW,324,0.0,0.0,49,0.00,,,0.00,Weather View 32 v70,2013-01-18 03:54:00,
2013-01-17 20:59:00,19.8,4.1,31.00,West,262,0.0,0.0,50,0.00,,,0.00,Weather View 32 v70,2013-01-18 03:59:00,
2013-01-17 21:04:00,19.8,5.4,31.00,SSW,211,0.0,0.0,53,0.00,,,0.00,Weather View 32 v70,2013-01-18 04:04:00,
2013-01-17 21:09:00,20.7,4.5,31.00,West,279,0.0,0.0,49,0.00,,,0.00,Weather View 32 v70,2013-01-18 04:09:00,
2013-01-17 21:14:00,21.2,3.2,31.00,West,262,0.0,0.0,45,0.00,,,0.00,Weather View 32 v70,2013-01-18 04:14:00,
2013-01-17 21:19:00,21.6,2.5,31.00,SW,234,0.0,0.0,43,0.00,,,0.00,Weather View 32 v70,2013-01-18 04:19:00,
2013-01-17 21:24:00,22.6,3.5,31.00,West,275,0.0,0.0,43,0.00,,,0.00,Weather View 32 v70,2013-01-18 04:24:00,
2013-01-17 21:29:00,23.9,4.1,31.00,NNW,331,0.0,5.0,42,0.00,,,0.00,Weather View 32 v70,2013-01-18 04:29:00,
2013-01-17 21:34:00,24.3,4.5,31.00,SE,137,0.0,5.0,42,0.00,,,0.00,Weather View 32 v70,2013-01-18 04:34:00,
2013-01-17 21:39:00,24.3,4.5,31.00,WNW,282,0.0,5.0,42,0.00,,,0.00,Weather View 32 v70,2013-01-18 04:39:00,
2013-01-17 21:44:00,25.7,3.6,31.00,West,265,0.0,5.0,38,0.00,,,0.00,Weather View 32 v70,2013-01-18 04:44:00,
2013-01-17 21:49:00,25.3,3.3,31.00,WNW,303,0.0,5.0,38,0.00,,,0.00,Weather View 32 v70,2013-01-18 04:49:00,
2013-01-17 21:54:00,24.6,3.2,31.00,WSW,249,2.0,5.0,39,0.00,,,0.00,Weather View 32 v70,2013-01-18 04:54:00,
2013-01-17 21:59:00,25.0,3.5,31.00,SW,222,0.0,5.0,39,0.00,,,0.00,Weather View 32 v70,2013-01-18 04:59:00,
2013-01-17 22:00:00,25.0,2.9,31.00,WSW,250,0.0,5.0,38,0.00,,,0.00,Weather View 32 v70,2013-01-18 05:00:00,
2013-01-17 22:03:00,25.3,2.7,31.00,West,274,0.0,5.0,37,0.00,,,0.00,Weather View 32 v70,2013-01-18 05:03:00,
2013-01-17 22:08:00,25.7,3.6,31.00,SW,214,3.0,5.0,38,0.00,,,0.00,Weather View 32 v70,2013-01-18 05:08:00,
2013-01-17 22:13:00,27.1,4.3,31.00,NNW,338,0.0,5.0,37,0.00,,,0.00,Weather View 32 v70,2013-01-18 05:13:00,
2013-01-17 22:18:00,26.6,3.8,31.00,WSW,251,0.0,5.0,37,0.00,,,0.00,Weather View 32 v70,2013-01-18 05:18:00,
2013-01-17 22:23:00,25.9,4.3,31.00,NW,315,0.0,5.0,39,0.00,,,0.00,Weather View 32 v70,2013-01-18 05:23:00,
2013-01-17 22:28:00,25.3,4.9,31.00,ESE,119,0.0,4.0,41,0.00,,,0.00,Weather View 32 v70,2013-01-18 05:28:00,
2013-01-17 22:33:00,26.1,3.9,31.00,SSW,211,0.0,4.0,38,0.00,,,0.00,Weather View 32 v70,2013-01-18 05:33:00,
2013-01-17 22:38:00,26.2,4.6,31.00,SE,139,6.0,6.0,39,0.00,,,0.00,Weather View 32 v70,2013-01-18 05:38:00,
2013-01-17 22:43:00,26.4,4.8,31.00,SSE,159,0.0,6.0,39,0.00,,,0.00,Weather View 32 v70,2013-01-18 05:43:00,
2013-01-17 22:48:00,28.6,3.7,31.00,South,183,6.0,6.0,34,0.00,,,0.00,Weather View 32 v70,2013-01-18 05:48:00,
2013-01-17 22:53:00,30.0,4.4,31.00,North,0,0.0,6.0,33,0.00,,,0.00,Weather View 32 v70,2013-01-18 05:53:00,
2013-01-17 22:58:00,31.6,4.4,31.00,SW,228,4.0,6.0,31,0.00,,,0.00,Weather View 32 v70,2013-01-18 05:58:00,
2013-01-17 23:03:00,32.9,5.5,31.00,WSW,242,0.0,10.0,31,0.00,,,0.00,Weather View 32 v70,2013-01-18 06:03:00,
2013-01-17 23:08:00,32.0,4.8,31.00,SE,129,3.0,10.0,31,0.00,,,0.00,Weather View 32 v70,2013-01-18 06:08:00,
2013-01-17 23:13:00,30.6,3.5,31.00,SSE,152,0.0,10.0,31,0.00,,,0.00,Weather View 32 v70,2013-01-18 06:13:00,
2013-01-17 23:18:00,30.4,3.3,31.00,SSE,166,0.0,10.0,31,0.00,,,0.00,Weather View 32 v70,2013-01-18 06:18:00,
2013-01-17 23:23:00,31.3,4.1,31.00,North,0,0.0,10.0,31,0.00,,,0.00,Weather View 32 v70,2013-01-18 06:23:00,
2013-01-17 23:28:00,30.9,3.8,31.00,East,98,0.0,10.0,31,0.00,,,0.00,Weather View 32 v70,2013-01-18 06:28:00,
2013-01-17 23:33:00,29.7,2.7,31.00,NW,315,2.0,10.0,31,0.00,,,0.00,Weather View 32 v70,2013-01-18 06:33:00,
2013-01-17 23:38:00,31.5,4.3,31.00,ESE,103,3.0,10.0,31,0.00,,,0.00,Weather View 32 v70,2013-01-18 06:38:00,
2013-01-17 23:43:00,30.4,3.3,31.00,ENE,73,0.0,10.0,31,0.00,,,0.00,Weather View 32 v70,2013-01-18 06:43:00,
2013-01-17 23:48:00,30.2,2.5,31.00,NE,47,5.0,10.0,30,0.00,,,0.00,Weather View 32 v70,2013-01-18 06:48:00,
2013-01-17 23:53:00,30.7,2.9,31.00,East,82,4.0,10.0,30,0.00,,,0.00,Weather View 32 v70,2013-01-18 06:53:00,
2013-01-17 23:58:00,31.1,4.0,31.00,ENE,61,0.0,10.0,31,0.00,,,0.00,Weather View 32 v70,2013-01-18 06:58:00,